| time (UTC) | temp C | wind direction | speed KPH | gust KPH | rain 1hr cm | rain 24hr cm | rain mn cm | humidity % | barometer mb |
| 20260505200031 | 13 | 43 | 4.8 | 19.3 | 0.00 | 0.00 | 0.00 | 55 | 1012.7 |
| 20260505194515 | 13 | 18 | 6.4 | 16.1 | 0.00 | 0.00 | 0.00 | 57 | 1012.5 |
| 20260505193112 | 13 | 335 | 4.8 | 14.5 | 0.00 | 0.00 | 0.00 | 59 | 1012.3 |
| 20260505191508 | 13 | 306 | 1.6 | 8.0 | 0.00 | 0.00 | 0.00 | 59 | 1012.1 |
| 20260505190004 | 13 | 318 | 1.6 | 8.0 | 0.00 | 0.00 | 0.00 | 59 | 1012.1 |
| 20260505184502 | 13 | 348 | 0.0 | 9.7 | 0.00 | 0.00 | 0.00 | 60 | 1012.0 |
| 20260505183107 | 13 | 337 | 3.2 | 12.9 | 0.00 | 0.00 | 0.00 | 60 | 1012.0 |
| 20260505181556 | 14 | 311 | 3.2 | 8.0 | 0.00 | 0.00 | 0.00 | 60 | 1012.0 |
| 20260505180051 | 14 | 348 | 1.6 | 14.5 | 0.00 | 0.00 | 0.00 | 60 | 1012.0 |
| 20260505174550 | 14 | 313 | 4.8 | 16.1 | 0.00 | 0.00 | 0.00 | 60 | 1012.0 |
| 20260505173047 | 14 | 317 | 8.0 | 16.1 | 0.00 | 0.00 | 0.00 | 60 | 1012.1 |
| 20260505171538 | 14 | 348 | 3.2 | 16.1 | 0.00 | 0.00 | 0.00 | 60 | 1012.1 |
| 20260505170037 | 14 | 328 | 3.2 | 14.5 | 0.00 | 0.00 | 0.00 | 60 | 1012.1 |
| 20260505164546 | 14 | 6 | 6.4 | 14.5 | 0.00 | 0.00 | 0.00 | 60 | 1012.1 |
| 20260505163025 | 14 | 333 | 4.8 | 9.7 | 0.00 | 0.00 | 0.00 | 60 | 1012.1 |
| 20260505161520 | 14 | 6 | 1.6 | 9.7 | 0.00 | 0.00 | 0.00 | 60 | 1012.1 |
| 20260505153010 | 16 | 321 | 4.8 | 14.5 | 0.00 | 0.00 | 0.00 | 60 | 1012.3 |
| 20260505151502 | 16 | 333 | 1.6 | 8.0 | 0.00 | 0.00 | 0.00 | 58 | 1012.3 |
| 20260505124525 | 15 | 358 | 3.2 | 8.0 | 0.00 | 0.00 | 0.00 | 59 | 1012.8 |
| 20260505123014 | 16 | 37 | 3.2 | 9.7 | 0.00 | 0.00 | 0.00 | 59 | 1012.9 |
| 20260505121510 | 16 | 19 | 1.6 | 12.9 | 0.00 | 0.00 | 0.00 | 59 | 1012.9 |
| 20260505120006 | 15 | 338 | 4.8 | 14.5 | 0.00 | 0.00 | 0.00 | 59 | 1012.8 |
| 20260505114501 | 15 | 304 | 4.8 | 12.9 | 0.00 | 0.00 | 0.00 | 58 | 1012.9 |
| 20260505113101 | 14 | 40 | 4.8 | 9.7 | 0.00 | 0.00 | 0.00 | 55 | 1013.0 |
| 20260505111556 | 13 | 339 | 1.6 | 11.3 | 0.00 | 0.00 | 0.00 | 52 | 1013.2 |
| 20260505101533 | 13 | 2 | 4.8 | 11.3 | 0.00 | 0.00 | 0.00 | 45 | 1013.6 |
| 20260505100040 | 13 | 307 | 3.2 | 17.7 | 0.00 | 0.00 | 0.00 | 42 | 1013.5 |
| 20260505094524 | 13 | 353 | 1.6 | 11.3 | 0.00 | 0.00 | 0.00 | 30 | 1013.6 |
| 20260505093019 | 13 | 310 | 3.2 | 12.9 | 0.00 | 0.00 | 0.00 | 28 | 1013.6 |
| 20260505091514 | 13 | 297 | 8.0 | 19.3 | 0.00 | 0.00 | 0.00 | 23 | 1013.7 |
| 20260505090010 | 13 | 62 | 6.4 | 16.1 | 0.00 | 0.00 | 0.00 | 9 | 1013.6 |
| 20260505084506 | 12 | 289 | 6.4 | 12.9 | 0.00 | 0.00 | 0.00 | 1 | 1013.8 |
| 20260505083005 | 12 | 304 | 4.8 | 12.9 | 0.00 | 0.00 | 0.00 | 1 | 1013.9 |
| 20260505081604 | 11 | 311 | 3.2 | 9.7 | 0.00 | 0.00 | 0.00 | 1 | 1013.9 |
| 20260505080059 | 11 | 33 | 4.8 | 12.9 | 0.00 | 0.00 | 0.00 | 1 | 1014.0 |
| 20260505074609 | 11 | 334 | 3.2 | 8.0 | 0.00 | 0.00 | 0.00 | 1 | 1013.8 |
| 20260505073052 | 11 | 316 | 1.6 | 8.0 | 0.00 | 0.00 | 0.00 | 1 | 1013.9 |
| 20260505071545 | 11 | 4 | 3.2 | 9.7 | 0.00 | 0.00 | 0.00 | 1 | 1014.0 |
| 20260505070040 | 11 | 325 | 1.6 | 8.0 | 0.00 | 0.00 | 0.00 | 1 | 1014.0 |
| 20260505064537 | 10 | 33 | 3.2 | 8.0 | 0.00 | 0.00 | 0.00 | 1 | 1014.0 |
| 20260505063039 | 10 | 301 | 1.6 | 6.4 | 0.00 | 0.00 | 0.00 | 1 | 1014.0 |
| 20260505061532 | 10 | 320 | 3.2 | 9.7 | 0.00 | 0.00 | 0.00 | 1 | 1013.9 |
| 20260505060021 | 10 | 297 | 0.0 | 8.0 | 0.00 | 0.00 | 0.00 | 1 | 1014.0 |
| 20260505054523 | 10 | 343 | 3.2 | 8.0 | 0.00 | 0.00 | 0.00 | 1 | 1014.0 |
| 20260505053012 | 10 | 297 | 0.0 | 6.4 | 0.00 | 0.00 | 0.00 | 1 | 1014.0 |
| 20260505051508 | 10 | 321 | 1.6 | 4.8 | 0.00 | 0.00 | 0.00 | 1 | 1014.0 |
| 20260505041553 | 10 | 335 | 0.0 | 6.4 | 0.00 | 0.00 | 0.00 | 1 | 1014.2 |
| 20260505040049 | 10 | 332 | 0.0 | 6.4 | 0.00 | 0.00 | 0.00 | 1 | 1014.3 |
| 20260505034546 | 10 | 358 | 0.0 | 6.4 | 0.00 | 0.00 | 0.00 | 1 | 1014.2 |
| 20260505033048 | 10 | 302 | 1.6 | 6.4 | 0.00 | 0.00 | 0.00 | 1 | 1014.2 |
| 20260505031535 | 10 | 335 | 0.0 | 3.2 | 0.00 | 0.00 | 0.00 | 1 | 1014.2 |
| 20260505030031 | 10 | 331 | 0.0 | 3.2 | 0.00 | 0.00 | 0.00 | 1 | 1014.1 |
| 20260505024549 | 10 | 343 | 0.0 | 4.8 | 0.00 | 0.00 | 0.00 | 1 | 1014.1 |
| 20260505023025 | 10 | 50 | 0.0 | 3.2 | 0.00 | 0.00 | 0.00 | 1 | 1014.1 |
| 20260505021536 | 11 | 332 | 0.0 | 4.8 | 0.00 | 0.00 | 0.00 | 1 | 1014.3 |
| 20260505020013 | 11 | 27 | 0.0 | 6.4 | 0.00 | 0.00 | 0.00 | 1 | 1014.2 |
| 20260505014509 | 11 | 353 | 0.0 | 6.4 | 0.00 | 0.00 | 0.00 | 1 | 1014.4 |
| 20260505013005 | 11 | 331 | 3.2 | 8.0 | 0.00 | 0.00 | 0.00 | 1 | 1014.4 |
| 20260505011601 | 12 | 29 | 1.6 | 6.4 | 0.00 | 0.00 | 0.00 | 1 | 1014.7 |
| 20260505010056 | 12 | 348 | 1.6 | 6.4 | 0.00 | 0.00 | 0.00 | 1 | 1014.7 |
| 20260505004551 | 12 | 2 | 1.6 | 6.4 | 0.00 | 0.00 | 0.00 | 1 | 1014.7 |
| 20260505003046 | 12 | 339 | 1.6 | 4.8 | 0.00 | 0.00 | 0.00 | 1 | 1014.8 |
| 20260505001542 | 12 | 34 | 0.0 | 6.4 | 0.00 | 0.00 | 0.00 | 1 | 1014.9 |
| 20260505000039 | 12 | 48 | 1.6 | 6.4 | 0.00 | 0.00 | 0.00 | 1 | 1014.9 |
| 20260504234532 | 12 | 55 | 1.6 | 6.4 | 0.00 | 0.00 | 0.00 | 1 | 1015.0 |
| 20260504233027 | 12 | 46 | 0.0 | 4.8 | 0.00 | 0.00 | 0.00 | 1 | 1015.1 |
| 20260504231524 | 12 | 12 | 1.6 | 8.0 | 0.00 | 0.00 | 0.00 | 1 | 1015.1 |
| 20260504230019 | 12 | 61 | 3.2 | 8.0 | 0.00 | 0.00 | 0.00 | 1 | 1015.1 |
| 20260504224514 | 13 | 33 | 3.2 | 6.4 | 0.00 | 0.00 | 0.00 | 1 | 1015.3 |
| 20260504223010 | 13 | 343 | 1.6 | 4.8 | 0.00 | 0.00 | 0.00 | 1 | 1015.2 |
| 20260504221505 | 13 | 348 | 1.6 | 12.9 | 0.00 | 0.00 | 0.00 | 1 | 1015.3 |
| 20260504220001 | 13 | 17 | 1.6 | 8.0 | 0.00 | 0.00 | 0.00 | 1 | 1015.3 |
| 20260504214556 | 13 | 29 | 1.6 | 8.0 | 0.00 | 0.00 | 0.00 | 3 | 1015.3 |
| 20260504213104 | 13 | 353 | 0.0 | 6.4 | 0.00 | 0.00 | 0.00 | 5 | 1015.4 |
| 20260504211554 | 13 | 15 | 1.6 | 8.0 | 0.00 | 0.00 | 0.00 | 5 | 1015.3 |
| 20260504210052 | 13 | 20 | 1.6 | 6.4 | 0.00 | 0.00 | 0.00 | 6 | 1015.4 |
| 20260504204559 | 14 | 44 | 1.6 | 8.0 | 0.00 | 0.00 | 0.00 | 7 | 1015.3 |
| 20260504203042 | 14 | 18 | 3.2 | 8.0 | 0.00 | 0.00 | 0.00 | 9 | 1015.3 |
| 20260504201536 | 14 | 344 | 1.6 | 12.9 | 0.00 | 0.00 | 0.00 | 13 | 1015.2 |